Location: Kouchibouguac National Park
(46.8081°N, 64.9088°W)
Time: 16:40:23
(UTC-03:00)

Amateur Radio Satellites - All Passes

Search period start: 23 August 2017 16:10
Search period end: 24 August 2017 16:10
Location: Kouchibouguac National Park, 46.8081°N, 64.9088°W

Satellite Date Start Highest point End Downlink Frequencies (MHz)
Time Altitude Azimuth
MOZHAYETS 4 23 Aug 16:11:19 16:15:34 35° 97° (E) 16:19:49
ITAMSAT 1 23 Aug 16:18:19 16:23:27 60° 258° (WSW) 16:28:37 435.822/435.867
DOVE 4 23 Aug 16:21:33 16:24:44 17° 60° (ENE) 16:27:53 437.250
YUBILEINY 23 Aug 16:32:47 16:41:34 80° 96° (E) 16:50:20 435.215
CUBESAT XI-V 23 Aug 16:39:49 16:42:46 16° 89° (E) 16:45:40 437.345
AO-7 23 Aug 16:42:14 16:50:09 46° 260° (W) 16:58:09 .
BEESAT 23 Aug 16:52:44 16:57:32 85° 287° (WNW) 17:02:19 436.000
ISS 23 Aug 16:54:18 16:56:40 19° 223° (SW) 16:59:02 437.550
UKube-1 23 Aug 16:56:24 16:57:50 11° 303° (WNW) 16:59:15 .
nSIGHT-1 23 Aug 16:59:03 17:01:09 16° 224° (SW) 17:03:14 .
CUTE-I 23 Aug 17:10:55 17:14:19 17° 57° (ENE) 17:17:43 437.470
XW-2F 23 Aug 17:13:48 17:14:53 11° 60° (ENE) 17:15:59 145.980 - 146.000
HO-68 23 Aug 17:14:25 17:17:33 13° 44° (NE) 17:20:41 435.675
ITUPSAT 1 23 Aug 17:29:22 17:33:51 41° 292° (WNW) 17:38:19 437.325
KAITUO 1B 23 Aug 17:32:46 17:34:49 14° 62° (ENE) 17:36:52 145.475/437.950
KKS-1 23 Aug 17:38:18 17:41:58 25° 94° (E) 17:45:35 437.445
RS-15 23 Aug 17:43:17 17:54:31 38° 21° (NNE) 18:05:19 29.354- 29.394
MOZHAYETS 4 23 Aug 17:48:40 17:52:37 29° 294° (WNW) 17:56:34
DOVE 4 23 Aug 17:56:33 18:01:49 82° 257° (WSW) 18:06:56 437.250
NUDT-PHONESAT 23 Aug 17:59:43 18:02:47 26° 68° (ENE) 18:05:54 437.300
LilacSat-2 23 Aug 18:04:30 18:08:04 42° 71° (ENE) 18:11:42 437.200
XW-2D 23 Aug 18:04:54 18:08:27 41° 71° (ENE) 18:12:03 145.860 - 145.880
STARS 23 Aug 18:08:33 18:11:56 22° 93° (E) 18:15:18 437.465
CUBESAT XI-V 23 Aug 18:15:53 18:20:34 64° 287° (WNW) 18:25:13 437.345
XW-2B 23 Aug 18:15:55 18:19:35 53° 73° (ENE) 18:23:17 145.730 - 145.750
YUBILEINY 23 Aug 18:32:19 18:39:24 27° 299° (WNW) 18:46:31 435.215
BEESAT 23 Aug 18:32:28 18:34:34 13° 304° (NW) 18:36:41 436.000
XW-2C 23 Aug 18:35:04 18:38:50 89° 255° (WSW) 18:42:39 145.795 - 145.815
CUTE 1.7 + AOD 2 23 Aug 18:40:53 18:44:10 22° 65° (ENE) 18:47:29 437.475
O/OREOS (USA 219) 23 Aug 18:43:13 18:47:31 40° 58° (ENE) 18:51:49 437.305
XW-2F 23 Aug 18:44:42 18:48:27 73° 258° (WSW) 18:52:14 145.980 - 146.000
CUTE-I 23 Aug 18:48:20 18:53:42 83° 255° (WSW) 18:59:05 437.470
HO-68 23 Aug 18:56:51 19:03:44 54° 65° (ENE) 19:10:39 435.675
KAITUO 1B 23 Aug 19:04:47 19:08:24 52° 260° (W) 19:12:06 145.475/437.950
UWE-3 23 Aug 19:10:47 19:13:09 15° 61° (ENE) 19:15:30 435.000/436.395/437.385
KKS-1 23 Aug 19:14:32 19:18:36 37° 292° (WNW) 19:22:40 437.445
SEEDS 23 Aug 19:22:04 19:25:55 36° 69° (ENE) 19:29:50 437.485
CUBEBUG 2 23 Aug 19:22:57 19:26:40 31° 68° (ENE) 19:30:22 437.445
NUDT-PHONESAT 23 Aug 19:33:33 19:36:38 25° 265° (W) 19:39:44 437.300
DOVE 4 23 Aug 19:38:23 19:40:11 12° 274° (W) 19:41:58 437.250
LilacSat-2 23 Aug 19:40:09 19:42:34 16° 269° (W) 19:45:02 437.200
XW-2D 23 Aug 19:40:23 19:42:50 16° 269° (W) 19:45:18 145.860 - 145.880
ZACube-1 23 Aug 19:43:02 19:45:49 18° 63° (ENE) 19:48:38 437.345
STARS 23 Aug 19:44:20 19:48:27 41° 291° (WNW) 19:52:31 437.465
XW-2A 23 Aug 19:46:40 19:49:53 50° 74° (ENE) 19:53:09 145.665 - 145.685
XW-2B 23 Aug 19:52:18 19:54:06 13° 270° (W) 19:55:55 145.730 - 145.750
RS-15 23 Aug 19:56:55 20:09:10 80° 51° (NE) 20:20:44 29.354- 29.394
AAUSAT CUBESAT 2 23 Aug 19:58:09 20:02:03 40° 70° (ENE) 20:06:00 437.432
AO-73 23 Aug 20:01:42 20:05:01 24° 66° (ENE) 20:08:21 145.935
STRAND 1 23 Aug 20:02:16 20:06:32 26° 94° (E) 20:10:46 437.568
CUTE 1.7 + AOD 2 23 Aug 20:15:47 20:19:46 40° 263° (W) 20:23:49 437.475
O/OREOS (USA 219) 23 Aug 20:23:00 20:26:44 25° 256° (WSW) 20:30:27 437.305
CUTE-I 23 Aug 20:32:36 20:34:34 12° 274° (W) 20:36:33 437.470
DELFI C3 23 Aug 20:38:12 20:39:36 12° 59° (ENE) 20:40:58 145.870
Oscar 11 23 Aug 20:42:07 20:46:15 47° 71° (ENE) 20:50:26 .
UWE-3 23 Aug 20:45:02 20:49:09 60° 259° (W) 20:53:16 435.000/436.395/437.385
HO-68 23 Aug 20:45:19 20:51:44 35° 265° (W) 20:58:10 435.675
SEEDS 23 Aug 20:58:19 21:01:42 23° 267° (W) 21:05:08 437.485
CUBEBUG 2 23 Aug 20:59:46 21:03:20 26° 265° (W) 21:06:51 437.445
ZACube-1 23 Aug 21:17:46 21:21:46 48° 261° (W) 21:25:48 437.345
Max Valier Satellite 23 Aug 21:18:07 21:20:50 20° 66° (ENE) 21:23:33 145.860
XW-2A 23 Aug 21:22:16 21:22:56 10° 270° (W) 21:23:37 145.665 - 145.685
AAUSAT CUBESAT 2 23 Aug 21:34:33 21:37:40 20° 268° (W) 21:40:50 437.432
AO-73 23 Aug 21:37:22 21:41:07 34° 264° (W) 21:44:54 145.935
STRAND 1 23 Aug 21:41:03 21:45:54 45° 292° (WNW) 21:50:43 437.568
EO-88 23 Aug 22:04:10 22:07:42 52° 73° (ENE) 22:11:16 145.990 - 145.960
DELFI C3 23 Aug 22:09:44 22:13:44 80° 257° (WSW) 22:17:47 145.870
RS-15 23 Aug 22:10:20 22:20:28 34° 255° (WSW) 22:30:11 29.354- 29.394
ESTCUBE 1 23 Aug 22:15:12 22:16:17 11° 56° (NE) 22:17:22 437.505/2401.250
Oscar 11 23 Aug 22:19:37 22:22:39 18° 269° (W) 22:25:42 .
UNISAT 6 23 Aug 22:24:45 22:28:00 20° 93° (E) 22:31:16 437.425
SO-50 23 Aug 22:33:53 22:37:34 25° 115° (ESE) 22:41:15 436.795
FO-29 23 Aug 22:40:04 22:45:36 61° 101° (E) 22:50:44 435.910
PCSat 23 Aug 22:46:39 22:51:56 57° 117° (ESE) 22:57:16 145.827
Max Valier Satellite 23 Aug 22:51:12 22:54:29 32° 263° (W) 22:57:49 145.860
TIGRISAT 23 Aug 22:58:18 23:02:23 40° 98° (E) 23:06:31 435.000
PRISM 23 Aug 23:06:47 23:10:34 34° 97° (E) 23:14:18 437.425
LO-87 23 Aug 23:23:31 23:27:04 62° 74° (ENE) 23:30:36 145.935 - 145.965
SPROUT 23 Aug 23:26:06 23:28:12 14° 60° (ENE) 23:30:18 437.525
AIST 2D 23 Aug 23:35:20 23:36:49 12° 90° (E) 23:38:18 435.315
EO-88 23 Aug 23:40:07 23:41:41 12° 270° (W) 23:43:16 145.990 - 145.960
VELOX 1 23 Aug 23:42:08 23:45:03 17° 61° (ENE) 23:47:57 145.980
ESTCUBE 1 23 Aug 23:47:46 23:52:17 77° 74° (ENE) 23:56:50 437.505/2401.250
POLYITAN 1 23 Aug 23:59:48 00:00:48 11° 88° (E) 00:01:48 437.675
UNISAT 6 24 Aug 00:00:47 00:04:54 44° 290° (WNW) 00:09:04 437.425
EO-79 24 Aug 00:13:21 00:15:52 15° 91° (E) 00:18:22 145.935-145.965
SO-50 24 Aug 00:13:25 00:17:47 47° 313° (NW) 00:22:10 436.795
QB50P2 24 Aug 00:13:38 00:16:25 17° 91° (E) 00:19:12 145.880/145.840
FO-29 24 Aug 00:26:04 00:30:11 22° 303° (WNW) 00:34:06 435.910
PCSat 24 Aug 00:30:55 00:35:40 30° 318° (NW) 00:40:26 145.827
TIGRISAT 24 Aug 00:35:29 00:38:53 23° 295° (WNW) 00:42:19 435.000
DUCHIFAT 1 24 Aug 00:38:43 00:42:01 22° 94° (E) 00:45:19 145.980
NO-84 24 Aug 00:38:59 00:41:06 18° 134° (SE) 00:43:11 435.350 FM
UKube-1 24 Aug 00:41:30 00:43:48 14° 59° (ENE) 00:46:07 .
PRISM 24 Aug 00:42:20 00:45:41 24° 295° (WNW) 00:49:01 437.425
YUBILEINY 24 Aug 00:46:15 00:48:11 11° 45° (NE) 00:50:07 435.215
SPROUT 24 Aug 00:59:18 01:03:33 74° 258° (WSW) 01:07:49 437.525
LO-87 24 Aug 01:00:40 01:00:53 10° 271° (W) 01:01:04 145.935 - 145.965
AIST 2D 24 Aug 01:06:50 01:10:18 50° 287° (WNW) 01:13:46 435.315
DX 1 24 Aug 01:07:59 01:11:58 35° 67° (ENE) 01:15:58 434.975-435.025
50 SAT 24 Aug 01:11:52 01:15:07 44° 72° (ENE) 01:18:24 437.505
M-CUBED/EXP-1 PRIME 24 Aug 01:16:19 01:20:41 76° 107° (ESE) 01:24:42 437.505
VELOX 1 24 Aug 01:16:37 01:21:02 61° 259° (WSW) 01:25:29 145.980
Oscar 19 24 Aug 01:24:49 01:26:05 11° 86° (E) 01:27:20 437.125/150
NANOSAT C BR1 24 Aug 01:24:59 01:29:13 77° 104° (ESE) 01:33:25 145.865
ESTCUBE 1 24 Aug 01:27:40 01:29:38 13° 272° (W) 01:31:36 437.505/2401.250
POLYITAN 1 24 Aug 01:32:54 01:37:08 79° 284° (WNW) 01:41:21 437.675
EO-79 24 Aug 01:47:50 01:51:57 55° 288° (WNW) 01:56:04 145.935-145.965
QB50P2 24 Aug 01:48:24 01:52:30 49° 288° (WNW) 01:56:34 145.880/145.840
SO-50 24 Aug 01:57:07 01:59:19 13° 336° (NNW) 02:01:33 436.795
BUGSAT 1 24 Aug 02:00:28 02:04:21 45° 99° (E) 02:08:15 437.445
DUCHIFAT 1 24 Aug 02:13:56 02:17:48 37° 291° (WNW) 02:21:39 145.980
UKube-1 24 Aug 02:14:57 02:19:17 73° 257° (WSW) 02:23:37 .
NO-84 24 Aug 02:15:26 02:18:15 49° 331° (NNW) 02:21:02 435.350 FM
PCSat 24 Aug 02:19:40 02:20:56 11° 342° (NNW) 02:22:12 145.827
BEESAT 24 Aug 02:25:36 02:29:09 21° 61° (ENE) 02:32:42 436.000
YUBILEINY 24 Aug 02:39:30 02:47:50 46° 71° (ENE) 02:56:06 435.215
DX 1 24 Aug 02:44:33 02:48:13 26° 265° (W) 02:51:53 434.975-435.025
50 SAT 24 Aug 02:46:27 02:48:01 13° 269° (W) 02:49:35 437.505
M-CUBED/EXP-1 PRIME 24 Aug 02:52:00 02:54:27 15° 308° (NW) 02:56:49 437.505
Oscar 19 24 Aug 03:01:00 03:06:14 79° 104° (ESE) 03:11:27 437.125/150
ITUPSAT 1 24 Aug 03:01:08 03:05:35 42° 68° (ENE) 03:10:04 437.325
Gurwin Techsat 1B 24 Aug 03:01:53 03:07:08 54° 100° (E) 03:12:19 435.225
NANOSAT C BR1 24 Aug 03:02:29 03:04:20 13° 301° (WNW) 03:06:12 145.865
MOZHAYETS 4 24 Aug 03:15:43 03:20:04 46° 70° (ENE) 03:24:27
BUGSAT 1 24 Aug 03:36:38 03:39:24 18° 297° (WNW) 03:42:10 437.445
CUBESAT XI-V 24 Aug 03:45:36 03:49:13 23° 63° (ENE) 03:52:52 437.345
NO-84 24 Aug 03:54:07 03:56:08 17° 351° (N) 03:58:10 435.350 FM
BEESAT 24 Aug 04:01:56 04:06:34 53° 259° (W) 04:11:14 436.000
ITAMSAT 1 24 Aug 04:28:13 04:33:02 38° 97° (E) 04:37:49 435.822/435.867
YUBILEINY 24 Aug 04:36:32 04:44:37 45° 273° (W) 04:52:40 435.215
KKS-1 24 Aug 04:38:47 04:42:47 33° 67° (ENE) 04:46:49 437.445
ITUPSAT 1 24 Aug 04:39:39 04:43:34 25° 266° (W) 04:47:30 437.325
AO-7 24 Aug 04:39:51 04:47:59 53° 102° (ESE) 04:56:01 .
Oscar 19 24 Aug 04:41:35 04:44:56 18° 303° (WNW) 04:48:18 437.125/150
Gurwin Techsat 1B 24 Aug 04:42:29 04:46:44 25° 299° (WNW) 04:50:57 435.225
MOZHAYETS 4 24 Aug 04:54:02 04:57:27 21° 268° (W) 05:00:54
STARS 24 Aug 05:07:36 05:11:22 28° 66° (ENE) 05:15:08 437.465
CUBESAT XI-V 24 Aug 05:21:48 05:26:17 47° 261° (W) 05:30:51 437.345
SO-50 24 Aug 05:21:55 05:24:24 14° 26° (NNE) 05:26:55 436.795
BEESAT 3 24 Aug 05:23:49 05:27:51 81° 123° (ESE) 05:31:54 437.485
NO-84 24 Aug 05:32:06 05:34:18 19° 14° (NNE) 05:36:33 435.350 FM
AO-85 24 Aug 05:42:47 05:46:41 73° 125° (SE) 05:50:37 145.980
BEESAT 2 24 Aug 05:45:58 05:49:48 46° 121° (ESE) 05:53:43 435.950
PCSat 24 Aug 05:48:48 05:52:50 20° 35° (NE) 05:56:50 145.827
DOVE 4 24 Aug 05:53:44 05:57:07 21° 91° (E) 06:00:22 437.250
ITAMSAT 1 24 Aug 06:07:51 06:12:25 32° 296° (WNW) 06:16:58 435.822/435.867
KKS-1 24 Aug 06:15:30 06:19:21 28° 264° (W) 06:23:14 437.445
AO-7 24 Aug 06:32:55 06:40:35 43° 303° (WNW) 06:48:13 .
KAITUO 1B 24 Aug 06:34:22 06:36:06 13° 89° (E) 06:37:51 145.475/437.950
STARS 24 Aug 06:43:40 06:47:37 32° 263° (W) 06:51:36 437.465
NUDT-PHONESAT 24 Aug 07:00:28 07:03:34 24° 94° (E) 07:06:38 437.300
SO-50 24 Aug 07:01:24 07:05:52 54° 48° (NE) 07:10:23 436.795
CUTE-I 24 Aug 07:02:42 07:07:26 31° 95° (E) 07:12:06 437.470
BEESAT 3 24 Aug 07:03:06 07:05:55 18° 325° (NW) 07:08:45 437.485
XW-2D 24 Aug 07:08:18 07:11:58 41° 98° (E) 07:15:36 145.860 - 145.880
LilacSat-2 24 Aug 07:08:40 07:12:24 43° 98° (E) 07:16:06 437.200
NO-84 24 Aug 07:09:07 07:12:03 73° 34° (NE) 07:15:09 435.350 FM
XW-2B 24 Aug 07:19:23 07:23:11 53° 100° (E) 07:26:56 145.730 - 145.750
STRAND 1 24 Aug 07:20:43 07:25:37 50° 69° (ENE) 07:30:33 437.568
BEESAT 2 24 Aug 07:24:23 07:27:45 25° 320° (NW) 07:31:10 435.950
AO-85 24 Aug 07:24:49 07:27:32 18° 325° (NW) 07:30:18 145.980
DOVE 4 24 Aug 07:30:47 07:35:04 42° 291° (WNW) 07:39:07 437.250
PCSat 24 Aug 07:31:35 07:37:04 84° 57° (ENE) 07:42:29 145.827
XW-2C 24 Aug 07:38:38 07:42:30 89° 303° (WNW) 07:46:22 145.795 - 145.815
XW-2F 24 Aug 07:47:44 07:51:36 75° 285° (WNW) 07:55:25 145.980 - 146.000
CUTE 1.7 + AOD 2 24 Aug 07:57:36 08:01:20 28° 95° (E) 08:05:02 437.475
KAITUO 1B 24 Aug 08:06:42 08:10:26 55° 287° (WNW) 08:14:10 145.475/437.950
HO-68 24 Aug 08:08:42 08:15:27 42° 98° (E) 08:22:10 435.675
AO-7 24 Aug 08:27:55 08:31:11 13° 326° (NW) 08:34:27 .
UWE-3 24 Aug 08:31:45 08:35:02 21° 93° (E) 08:38:22 435.000/436.395/437.385
NUDT-PHONESAT 24 Aug 08:34:11 08:37:26 28° 292° (WNW) 08:40:41 437.300
XW-2A 24 Aug 08:38:00 08:41:10 35° 98° (E) 08:44:20 145.665 - 145.685
SEEDS 24 Aug 08:38:00 08:42:09 47° 99° (E) 08:46:14 437.485
SO-50 24 Aug 08:42:28 08:46:01 23° 246° (WSW) 08:49:35 436.795
CUTE-I 24 Aug 08:42:37 08:47:33 40° 294° (WNW) 08:52:28 437.470
XW-2D 24 Aug 08:43:11 08:45:52 18° 296° (WNW) 08:48:32 145.860 - 145.880
LilacSat-2 24 Aug 08:43:43 08:46:22 18° 296° (WNW) 08:49:01 437.200
CUBEBUG 2 24 Aug 08:46:17 08:50:23 48° 99° (E) 08:54:34 437.445
NO-84 24 Aug 08:47:27 08:49:07 14° 229° (SW) 08:50:50 435.350 FM
FO-29 24 Aug 08:53:42 09:00:29 43° 66° (ENE) 09:06:37 435.910
XW-2B 24 Aug 08:54:44 08:56:57 15° 297° (WNW) 08:59:10 145.730 - 145.750
Tancredo 1 24 Aug 08:58:37 09:01:22 40° 146° (SE) 09:04:08 437.200
O/OREOS (USA 219) 24 Aug 08:59:04 09:02:42 25° 104° (ESE) 09:06:22 437.305
STRAND 1 24 Aug 09:01:01 09:05:04 23° 267° (W) 09:09:08 437.568
ZACube-1 24 Aug 09:02:54 09:06:29 25° 94° (E) 09:10:06 437.345
AAUSAT CUBESAT 2 24 Aug 09:12:16 09:16:23 50° 100° (E) 09:20:26 437.432
PCSat 24 Aug 09:16:30 09:19:44 16° 256° (WSW) 09:22:57 145.827
AO-73 24 Aug 09:21:33 09:25:31 34° 97° (E) 09:29:31 145.935
UNISAT 6 24 Aug 09:26:21 09:29:52 25° 66° (ENE) 09:33:22 437.425
CUTE 1.7 + AOD 2 24 Aug 09:33:21 09:37:09 31° 292° (WNW) 09:40:55 437.475
ISS 24 Aug 09:35:17 09:38:08 27° 141° (SE) 09:41:00 437.550
nSIGHT-1 24 Aug 09:38:38 09:41:33 31° 142° (SE) 09:44:29 .
DELFI C3 24 Aug 09:46:10 09:47:07 11° 88° (E) 09:48:03 145.870
HO-68 24 Aug 09:56:30 10:03:13 45° 297° (WNW) 10:09:54 435.675
PRISM 24 Aug 09:58:24 10:02:13 36° 69° (ENE) 10:06:04 437.425
TIGRISAT 24 Aug 09:59:36 10:03:44 48° 71° (ENE) 10:07:50 435.000
Oscar 11 24 Aug 10:02:04 10:06:26 67° 102° (ESE) 10:10:45 .
UWE-3 24 Aug 10:07:38 10:11:39 41° 290° (WNW) 10:15:44 435.000/436.395/437.385
XW-2A 24 Aug 10:11:27 10:13:39 16° 295° (WNW) 10:15:51 145.665 - 145.685
SEEDS 24 Aug 10:14:26 10:17:30 19° 297° (WNW) 10:20:33 437.485
Max Valier Satellite 24 Aug 10:18:25 10:21:01 18° 92° (E) 10:23:37 145.860
CUBEBUG 2 24 Aug 10:23:44 10:26:42 19° 296° (WNW) 10:29:43 437.445
RS-15 24 Aug 10:23:47 10:34:29 38° 106° (ESE) 10:45:14 29.354- 29.394
M-CUBED/EXP-1 PRIME 24 Aug 10:30:45 10:34:13 21° 56° (ENE) 10:37:43 437.505
Tancredo 1 24 Aug 10:33:44 10:36:32 41° 344° (NNW) 10:39:19 437.200
O/OREOS (USA 219) 24 Aug 10:37:43 10:41:54 39° 302° (WNW) 10:46:08 437.305
FO-29 24 Aug 10:38:32 10:45:30 43° 262° (W) 10:51:50 435.910
ZACube-1 24 Aug 10:38:54 10:42:49 35° 291° (WNW) 10:46:49 437.345
AAUSAT CUBESAT 2 24 Aug 10:48:38 10:51:27 18° 297° (WNW) 10:54:16 437.432
POLYITAN 1 24 Aug 10:54:48 10:56:46 13° 59° (ENE) 10:58:44 437.675
AO-73 24 Aug 10:58:02 11:01:37 26° 293° (WNW) 11:05:15 145.935
UNISAT 6 24 Aug 11:02:31 11:06:27 35° 263° (W) 11:10:23 437.425
EO-88 24 Aug 11:03:23 11:06:57 45° 99° (E) 11:10:29 145.990 - 145.960
EO-79 24 Aug 11:08:31 11:11:19 18° 62° (ENE) 11:14:09 145.935-145.965
QB50P2 24 Aug 11:08:58 11:11:59 19° 63° (ENE) 11:15:00 145.880/145.840
ISS 24 Aug 11:11:11 11:14:27 60° 339° (NNW) 11:17:43 437.550
nSIGHT-1 24 Aug 11:14:35 11:17:49 56° 341° (NNW) 11:21:03 .
DELFI C3 24 Aug 11:18:23 11:22:22 72° 285° (WNW) 11:26:18 145.870
DUCHIFAT 1 24 Aug 11:33:09 11:36:32 24° 65° (ENE) 11:39:55 145.980
PRISM 24 Aug 11:34:16 11:37:35 23° 266° (W) 11:40:55 437.425
TIGRISAT 24 Aug 11:37:48 11:40:42 18° 269° (W) 11:43:35 435.000
ESTCUBE 1 24 Aug 11:38:54 11:41:06 13° 88° (E) 11:43:19 437.505/2401.250
Oscar 11 24 Aug 11:39:31 11:42:03 15° 299° (WNW) 11:44:34 .
AIST 2D 24 Aug 11:43:18 11:46:48 86° 76° (ENE) 11:50:19 435.315
HO-68 24 Aug 11:47:16 11:49:11 11° 319° (NW) 11:51:06 435.675
Max Valier Satellite 24 Aug 11:51:33 11:54:59 36° 289° (WNW) 11:58:24 145.860
BEESAT 3 24 Aug 12:01:04 12:04:03 20° 36° (NE) 12:07:00 437.485
M-CUBED/EXP-1 PRIME 24 Aug 12:03:41 12:08:13 58° 254° (WSW) 12:12:50 437.505
Tancredo 1 24 Aug 12:09:28 12:12:06 30° 4° (N) 12:14:44 437.200
NANOSAT C BR1 24 Aug 12:19:22 12:23:33 81° 75° (ENE) 12:27:45 145.865
LO-87 24 Aug 12:20:47 12:24:15 50° 100° (E) 12:27:41 145.935 - 145.965
BEESAT 2 24 Aug 12:24:02 12:26:24 15° 31° (NNE) 12:28:44 435.950
POLYITAN 1 24 Aug 12:27:48 12:31:59 74° 257° (WSW) 12:36:12 437.675
AO-85 24 Aug 12:30:42 12:34:10 24° 40° (NE) 12:37:48 145.980
RS-15 24 Aug 12:33:44 12:46:05 77° 310° (NW) 12:58:28 29.354- 29.394
EO-88 24 Aug 12:38:03 12:40:16 15° 296° (WNW) 12:42:29 145.990 - 145.960
EO-79 24 Aug 12:42:37 12:46:43 51° 260° (W) 12:50:50 145.935-145.965
Oscar 19 24 Aug 12:42:58 12:46:59 23° 61° (ENE) 12:51:01 437.125/150
SPROUT 24 Aug 12:43:07 12:45:37 15° 90° (E) 12:48:07 437.525
QB50P2 24 Aug 12:43:25 12:47:28 46° 261° (W) 12:51:32 145.880/145.840
Gurwin Techsat 1B 24 Aug 12:48:14 12:51:51 19° 58° (ENE) 12:55:28 435.225
ISS 24 Aug 12:48:16 12:51:18 33° 359° (N) 12:54:20 437.550
nSIGHT-1 24 Aug 12:51:34 12:54:35 33° 0° (N) 12:57:36 .
BUGSAT 1 24 Aug 12:52:35 12:56:28 46° 71° (ENE) 13:00:22 437.445
VELOX 1 24 Aug 13:04:18 13:07:35 20° 92° (E) 13:10:51 145.980
DUCHIFAT 1 24 Aug 13:08:14 13:12:03 34° 263° (W) 13:15:53 145.980
ESTCUBE 1 24 Aug 13:13:52 13:18:26 73° 285° (WNW) 13:22:56 437.505/2401.250
BEESAT 3 24 Aug 13:38:02 13:42:03 68° 236° (SW) 13:45:57 437.485
Tancredo 1 24 Aug 13:44:39 13:47:33 72° 24° (NNE) 13:50:26 437.200
AO-7 24 Aug 13:51:51 13:58:16 26° 48° (NE) 14:04:41 .
LO-87 24 Aug 13:55:33 13:57:16 13° 297° (WNW) 13:58:59 145.935 - 145.965
NANOSAT C BR1 24 Aug 13:59:14 13:59:49 10° 273° (W) 14:00:25 145.865
UKube-1 24 Aug 14:00:16 14:02:44 15° 90° (E) 14:05:11 .
BEESAT 2 24 Aug 14:00:47 14:04:52 73° 52° (NE) 14:08:53 435.950
50 SAT 24 Aug 14:03:03 14:06:01 28° 97° (E) 14:08:56 437.505
AO-85 24 Aug 14:10:37 14:14:49 57° 238° (WSW) 14:19:21 145.980
ITAMSAT 1 24 Aug 14:13:01 14:15:26 13° 54° (NE) 14:17:51 435.822/435.867
SPROUT 24 Aug 14:17:43 14:21:53 56° 288° (WNW) 14:26:02 437.525
Oscar 19 24 Aug 14:20:53 14:25:56 55° 259° (W) 14:31:03 437.125/150
ISS 24 Aug 14:24:57 14:28:11 55° 19° (NNE) 14:31:25 437.550
Gurwin Techsat 1B 24 Aug 14:25:54 14:31:13 74° 257° (WSW) 14:36:34 435.225
nSIGHT-1 24 Aug 14:28:07 14:31:21 59° 20° (NNE) 14:34:34 .
DX 1 24 Aug 14:28:51 14:33:01 42° 99° (E) 14:37:08 434.975-435.025
BUGSAT 1 24 Aug 14:29:25 14:32:04 17° 268° (W) 14:34:44 437.445
VELOX 1 24 Aug 14:40:02 14:44:16 45° 290° (WNW) 14:48:26 145.980
RS-15 24 Aug 14:49:38 15:00:54 38° 340° (NNW) 15:12:01 29.354- 29.394
ESTCUBE 1 24 Aug 14:53:42 14:54:23 10° 305° (NW) 14:55:06 437.505/2401.250
Tancredo 1 24 Aug 15:20:21 15:22:25 18° 221° (SW) 15:24:29 437.200
UKube-1 24 Aug 15:34:53 15:39:08 60° 288° (WNW) 15:43:22 .
50 SAT 24 Aug 15:36:01 15:38:31 19° 294° (WNW) 15:40:59 437.505
BEESAT 2 24 Aug 15:40:05 15:42:04 13° 250° (WSW) 15:44:01 435.950
AO-7 24 Aug 15:41:38 15:50:01 88° 69° (ENE) 15:58:26 .
YUBILEINY 24 Aug 15:44:01 15:52:15 48° 88° (E) 16:00:29 435.215
ITAMSAT 1 24 Aug 15:48:53 15:54:04 78° 73° (ENE) 15:59:17 435.822/435.867
BEESAT 24 Aug 15:59:05 16:03:17 30° 96° (E) 16:07:30 436.000
ISS 24 Aug 16:01:37 16:04:33 31° 218° (SW) 16:07:29 437.550
